Regional Weather Roundup
Issued by NWS Albany, NY

Home | Current Version | Previous Version | Text Only | Print | Product List | Glossary On
Versions: 1 2 3 4 5 6 7 8 9 10 11 12 13 14 15 16 17 18 19 20 21 22 23 24 25 26 27 28 29 30 31 32 33 34 35 36 37 38 39 40 41 42 43 44 45 46 47 48 49 50
000
ASUS41 KALY 221310
RWRALY

NEW YORK STATE HOURLY WEATHER ROUNDUP
NATIONAL WEATHER SERVICE ALBANY NY
800 AM EST SAT NOV 22 2014

NOTE: "FAIR" INDICATES FEW OR NO CLOUDS BELOW 12,000 FEET WITH NO
SIGNIFICANT WEATHER AND/OR NO OBSTRUCTIONS TO VISIBILITY.

NYZ032-033-038>043-046>054-057>066-NYZ062>081-221400-
EAST


CITY           SKY/WX    TMP DP  RH WIND       PRES   REMARKS
ALBANY         MOCLDY    22  12  65 S12       30.38F WCI  10
GLENS FALLS    MOCLDY    23  14  68 S9        30.35F WCI  13
POUGHKEEPSIE   CLEAR     25  12  58 S6        30.44F WCI  18
NEWBURGH       CLEAR     21  14  73 W7        30.43F WCI  13
MONTGOMERY     CLEAR     20  12  71 SW8       30.43S WCI  10
WHITE PLAINS   SUNNY     25  12  58 VRB3      30.45R
ISLIP          MOSUNNY   29  15  56 W8        30.47S WCI  21
NEW YORK CITY  MOSUNNY   29  11  47 SW9       30.49S WCI  20
CENTRAL PARK   SUNNY     28  11  48 VRB6      30.50S WCI  22
$$

NYZ005>009-017-018-044>046-055-056-221400-
CENTRAL


CITY           SKY/WX    TMP DP  RH WIND       PRES   REMARKS
FULTON         MOCLDY    25  12  58 VRB6      30.26F WCI  18
SYRACUSE       MOCLDY    27  11  51 S6        30.28F WCI  20
ROME           MOCLDY    20  12  71 E7        30.33F WCI  11
ELMIRA         PTCLDY    19  14  81 CALM      30.32F
BINGHAMTON     PTCLDY    18   9  68 S9        30.28F WCI   7
MONTICELLO     PTCLDY    18  12  79 CALM      30.36S
$$

NYZ026>034-041>043-221400-
NORTH


CITY           SKY/WX    TMP DP  RH WIND       PRES   REMARKS
WATERTOWN      CLOUDY    27  10  49 S10G20    30.24F WCI  17
FORT DRUM      NOT AVBL
MASSENA        CLOUDY    27  17  66 SW20G32   30.18F WCI  13
SARANAC LAKE   MOCLDY    21  15  78 S13       30.13F WCI   9
PLATTSBURGH    CLOUDY    25  17  72 S12       30.21F WCI  14
$$

NYZ001>004-010>016-019>021-221400-
WEST


CITY           SKY/WX    TMP DP  RH WIND       PRES   REMARKS
NIAGARA FALLS  MOCLDY    29  16  58 S14       30.17F WCI  18
BUFFALO        MOCLDY    28   9  44 S15       30.19F WCI  16
DUNKIRK        CLOUDY    28  11  48 S20G33    30.22F WCI  15
JAMESTOWN      CLOUDY    19   9  63 S13       30.21S WCI   7
WELLSVILLE     PTCLDY    23   3  42 SW14      30.23S WCI  11
ROCHESTER      MOCLDY    27  10  49 S15       30.22F WCI  15
PENN YAN       MOCLDY    25  10  53 S10       30.25F WCI  15
$$

             KEY
       WCI = WIND CHILL INDEX
       VSB = VISIBILITY
       HX  = HEAT INDEX
$$



USA.gov is the U.S. government's official web portal to all federal, state and local government web resources and services.